Location: Wapato
(46.4478°N, 120.4212°W)
Time: 22:43:20
(UTC+00:00)

Vanguard 1 Rocket - Pass Details

Date: 15 May 2026
Orbit: 656 x 4211 km, 34.3° (Epoch: 7 June)

Event Time Altitude Azimuth Distance (km) Brightness Sun altitude
Rises 03:49:27 0° 272° (W) 5,854 12.7 -4.0°
Reaches altitude 10° 03:52:54 10° 266° (W) 5,247 12.2 -4.5°
Maximum altitude 04:08:33 44° 202° (SSW) 4,449 10.8 -6.7°
Drops below altitude 10° 04:31:27 10° 140° (SE) 7,403 11.4 -9.8°
Enters shadow 04:31:38 10° 140° (SE) 7,432 11.4 -9.8°
